Location: Newark
(34.7000°S, 31.1997°W)
Time: 09:49:34
(UTC+00:00)

ISS - Visible Passes

Search period start: 08 April 2020 00:00
Search period end: 18 April 2020 00:00
Orbit: 418 x 423 km, 51.6° (Epoch: 08 April)

Date Brightness Start Highest point End Pass type
(mag) Time Alt. Az. Time Alt. Az. Time Alt. Az.
09 Apr -1.4 07:28:40 10° SSW 07:31:23 21° SSE 07:34:06 10° E visible
10 Apr -1.0 06:42:30 12° S 06:44:02 15° SSE 06:46:04 10° ESE visible
11 Apr -3.2 07:30:40 10° SW 07:34:04 59° SE 07:37:27 10° ENE visible
12 Apr -2.3 06:45:56 29° S 06:46:50 34° SE 06:49:59 10° ENE visible
13 Apr -0.6 06:01:19 15° ESE 06:01:19 15° ESE 06:02:16 10° E visible
13 Apr -3.0 07:34:21 18° WSW 07:36:25 36° NW 07:39:35 10° NNE visible
14 Apr -3.4 06:49:52 56° NNE 06:49:52 56° NNE 06:52:42 10° NE visible
15 Apr -0.4 06:05:28 10° ENE 06:05:28 10° ENE 06:05:29 10° ENE visible
15 Apr -1.4 07:38:30 10° NW 07:38:30 10° NW 07:39:12 10° NW visible
17 Apr -2.7 21:05:19 10° NNW 21:07:45 34° NNE 21:07:45 34° NNE visible
